COSMOS 1275 DEB, 42226

Orbit data source: Space-Track

COSMOS 1275 DEB, 42226 is space debris in LEO originally from a launch on Thu, 04 Jun 1981 UTC launched from the Plesetsk Missile And Space Complex (PKMTR). Debris objects in space refer to the collection of defunct objects orbiting the Earth. Examples of debris include non-operational satellites, rocket bodies, and fragments generated from explosions, collisions, or faulty payload assembly.

Loading next visibility...
Identifier
42226, 1981-053US
Orbit
LEO
Country
Flag of CISCIS
Related business
Manufacturer
Unknown
Mission
Spacecraft
Bus & Motor
Unknown
Mass
Unknown
Launch date (UTC)
1981-06-04 (45 years ago)
Launch vehicle
Unknown
Launch site
Plesetsk Missile And Space Complex (PKMTR)
Object type
Payload
Rocket body
Debris
Shape & HBR
Unknown shape, 0.1 m
Radar Cross Section
Small (<0.1 m²)

Expand to show TLE details & history
Last TLE update: 4 days ago

TLE from 4 days ago
0 COSMOS 1275 DEB
1 42226U 81053US  25337.73703533  .00000996  00000-0  10952-2 0  9997
2 42226  82.9547 348.0096 0109125   5.2296 354.9967 13.68756775600649
Epoch: 2025-12-03T17:41Z
TLE epoch observation values (Epoch: 2025-12-03T17:41:19.852Z)
Latitude
-0.00012°
Longitude
9.87333°
Altitude
926.669 km
Speed
7.429 km/s
True Right ascension
23h 12m 02s
True Declination
0° 00' 00"
Sunlit
Object was in daylight at epoch
Visualization orbit readout
Latitude
Unknown
Longitude
Unknown
Altitude
Unknown
Speed
Unknown
Apparent Right ascension
Unknown
Apparent Declination
Unknown
Sunlit
N/A
Visualization observer readout
Local Sidereal Time
08:17:54
Azimuth
Unknown
Elevation
Unknown
Doppler factor
Unknown
Orbital elements
Apogee altitude
1,081.721 km
Perigee altitude
920.667 km
Semi-major axis
7,379.331 km
Eccentricity
0.01091
Inclination
82.9547°
RAAN
348.0096°
Arg. of periapsis
5.2296°
True anomaly
354.88614°
Mean anomaly
354.9967°
Eccentric anomaly
354.94157°
Mean motion
3.42387 °/min
Orbital period
105.14 mins
BSTAR
0.0010952
Loading maneuver chart data...
Computing Atmospheric mass density...
Loading historical data...
Loading historical data...
Loading historical data...
Loading historical data...
Loading historical data...
Loading historical data...
Loading historical data...

Documentation

Showing up to 5 results
|